Time,TemperatureF,DewpointF,PressureIn,WindDirection,WindDirectionDegrees,WindSpeedMPH,WindSpeedGustMPH,Humidity,HourlyPrecipIn,Conditions,Clouds,dailyrainin,SolarRadiationWatts/m^2,SoftwareType,DateUTC
2013-03-08 00:01:00,31.0,27.0,-100.00,NW,320,6.0,11.0,85,0.00,,,0.01,0.000000,,2013-03-08 08:01:00,
2013-03-08 00:11:00,31.0,27.0,-100.00,NW,320,6.0,11.0,85,0.00,,,0.01,0.000000,,2013-03-08 08:11:00,
2013-03-08 00:32:00,29.0,26.0,-100.00,WNW,303,3.0,9.0,90,0.00,,,0.01,0.000000,,2013-03-08 08:32:00,
2013-03-08 00:42:00,29.0,26.0,-100.00,WNW,303,3.0,9.0,90,0.00,,,0.01,0.000000,,2013-03-08 08:42:00,
2013-03-08 00:52:00,29.0,26.0,-100.00,WNW,303,3.0,9.0,90,0.00,,,0.01,0.000000,,2013-03-08 08:52:00,
2013-03-08 01:02:00,29.0,26.0,-100.00,WNW,303,3.0,9.0,90,0.00,,,0.01,0.000000,,2013-03-08 09:02:00,
2013-03-08 01:11:00,29.0,26.0,-100.00,WNW,303,3.0,9.0,90,0.00,,,0.01,0.000000,,2013-03-08 09:11:00,
2013-03-08 01:32:00,29.0,26.0,-100.00,NW,326,4.0,7.0,87,0.00,,,0.01,0.000000,,2013-03-08 09:32:00,
2013-03-08 01:42:00,29.0,26.0,-100.00,NW,326,4.0,7.0,87,0.00,,,0.01,0.000000,,2013-03-08 09:42:00,
2013-03-08 01:52:00,29.0,26.0,-100.00,NW,326,4.0,7.0,87,0.00,,,0.01,0.000000,,2013-03-08 09:52:00,
2013-03-08 02:01:00,29.0,26.0,-100.00,NW,326,4.0,7.0,87,0.00,,,0.01,0.000000,,2013-03-08 10:01:00,
2013-03-08 02:11:00,29.0,26.0,-100.00,NW,326,4.0,7.0,87,0.00,,,0.01,0.000000,,2013-03-08 10:11:00,
2013-03-08 02:32:00,29.0,25.0,-100.00,NNW,332,3.0,7.0,85,0.00,,,0.01,0.000000,,2013-03-08 10:32:00,
2013-03-08 02:42:00,29.0,25.0,-100.00,NNW,332,3.0,7.0,85,0.00,,,0.01,0.000000,,2013-03-08 10:42:00,
2013-03-08 02:52:00,29.0,25.0,-100.00,NNW,332,3.0,7.0,85,0.00,,,0.01,0.000000,,2013-03-08 10:52:00,
2013-03-08 03:01:00,29.0,25.0,-100.00,NNW,332,3.0,7.0,85,0.00,,,0.01,0.000000,,2013-03-08 11:01:00,
2013-03-08 03:11:00,29.0,25.0,-100.00,NNW,332,3.0,7.0,85,0.00,,,0.01,0.000000,,2013-03-08 11:11:00,
2013-03-08 03:32:00,28.0,25.0,-100.00,NW,313,3.0,6.0,87,0.00,,,0.01,0.000000,,2013-03-08 11:32:00,
2013-03-08 03:42:00,28.0,25.0,-100.00,NW,313,3.0,6.0,87,0.00,,,0.01,0.000000,,2013-03-08 11:42:00,
2013-03-08 03:52:00,28.0,25.0,-100.00,NW,313,3.0,6.0,87,0.00,,,0.01,0.000000,,2013-03-08 11:52:00,
2013-03-08 04:01:00,28.0,25.0,-100.00,NW,313,3.0,6.0,87,0.00,,,0.01,0.000000,,2013-03-08 12:01:00,
2013-03-08 04:11:00,28.0,25.0,-100.00,NW,313,3.0,6.0,87,0.00,,,0.01,0.000000,,2013-03-08 12:11:00,
2013-03-08 04:32:00,25.0,23.0,-100.00,WSW,250,3.0,4.0,92,0.00,,,0.01,0.000000,,2013-03-08 12:32:00,
2013-03-08 04:43:00,25.0,23.0,-100.00,WSW,250,3.0,4.0,92,0.00,,,0.01,0.000000,,2013-03-08 12:43:00,
2013-03-08 04:52:00,25.0,23.0,-100.00,WSW,250,3.0,4.0,92,0.00,,,0.01,0.000000,,2013-03-08 12:52:00,
2013-03-08 05:01:00,25.0,23.0,-100.00,WSW,250,3.0,4.0,92,0.00,,,0.01,0.000000,,2013-03-08 13:01:00,
2013-03-08 05:11:00,25.0,23.0,-100.00,WSW,250,3.0,4.0,92,0.00,,,0.01,0.000000,,2013-03-08 13:11:00,
2013-03-08 05:42:00,26.0,23.0,-100.00,WSW,248,3.0,5.0,90,0.00,,,-99.99,0.000000,,2013-03-08 13:42:00,
2013-03-08 05:52:00,26.0,23.0,-100.00,WSW,248,3.0,5.0,90,0.00,,,-99.99,0.000000,,2013-03-08 13:52:00,
2013-03-08 06:02:00,26.0,23.0,-100.00,WSW,248,3.0,5.0,90,0.00,,,-99.99,0.000000,,2013-03-08 14:02:00,
2013-03-08 06:11:00,26.0,23.0,-100.00,WSW,248,3.0,5.0,90,0.00,,,-99.99,0.000000,,2013-03-08 14:11:00,
2013-03-08 06:32:00,25.0,22.0,-100.00,West,260,3.0,5.0,88,0.00,,,0.01,0.000000,,2013-03-08 14:32:00,
2013-03-08 06:42:00,25.0,22.0,-100.00,West,260,3.0,5.0,88,0.00,,,0.01,0.000000,,2013-03-08 14:42:00,
2013-03-08 06:52:00,25.0,22.0,-100.00,West,260,3.0,5.0,88,0.00,,,0.01,0.000000,,2013-03-08 14:52:00,
2013-03-08 07:02:00,25.0,22.0,-100.00,West,260,3.0,5.0,88,0.00,,,0.01,0.000000,,2013-03-08 15:02:00,
2013-03-08 07:11:00,25.0,22.0,-100.00,West,260,3.0,5.0,88,0.00,,,0.01,0.000000,,2013-03-08 15:11:00,
2013-03-08 07:32:00,24.0,22.0,-100.00,NW,307,3.0,4.0,90,0.00,,,0.01,8.000000,,2013-03-08 15:32:00,
2013-03-08 07:43:00,24.0,22.0,-100.00,NW,307,3.0,4.0,90,0.00,,,0.01,8.000000,,2013-03-08 15:43:00,
2013-03-08 07:53:00,24.0,22.0,-100.00,NW,307,3.0,4.0,90,0.00,,,0.01,8.000000,,2013-03-08 15:53:00,
2013-03-08 08:01:00,24.0,22.0,-100.00,NW,307,3.0,4.0,90,0.00,,,0.01,8.000000,,2013-03-08 16:01:00,
2013-03-08 08:11:00,24.0,22.0,-100.00,NW,307,3.0,4.0,90,0.00,,,0.01,8.000000,,2013-03-08 16:11:00,
2013-03-08 08:32:00,29.0,26.0,-100.00,NNW,340,4.0,7.0,90,0.00,,,0.01,79.000000,,2013-03-08 16:32:00,
2013-03-08 08:42:00,29.0,26.0,-100.00,NNW,340,4.0,7.0,90,0.00,,,0.01,79.000000,,2013-03-08 16:42:00,
2013-03-08 08:52:00,29.0,26.0,-100.00,NNW,340,4.0,7.0,90,0.00,,,0.01,79.000000,,2013-03-08 16:52:00,
2013-03-08 09:02:00,29.0,26.0,-100.00,NNW,340,4.0,7.0,90,0.00,,,0.01,79.000000,,2013-03-08 17:02:00,
2013-03-08 09:11:00,29.0,26.0,-100.00,NNW,340,4.0,7.0,90,0.00,,,0.01,79.000000,,2013-03-08 17:11:00,
2013-03-08 09:32:00,32.0,29.0,-100.00,NNW,330,3.0,6.0,89,0.00,,,0.00,125.000000,,2013-03-08 17:32:00,
2013-03-08 09:42:00,32.0,29.0,-100.00,NNW,330,3.0,6.0,89,0.00,,,0.00,125.000000,,2013-03-08 17:42:00,
2013-03-08 09:52:00,32.0,29.0,-100.00,NNW,330,3.0,6.0,89,0.00,,,0.00,125.000000,,2013-03-08 17:52:00,
2013-03-08 10:01:00,32.0,29.0,-100.00,NNW,330,3.0,6.0,89,0.00,,,0.00,125.000000,,2013-03-08 18:01:00,
2013-03-08 10:11:00,32.0,29.0,-100.00,NNW,330,3.0,6.0,89,0.00,,,0.00,125.000000,,2013-03-08 18:11:00,
2013-03-08 10:32:00,32.0,29.0,-100.00,NNE,20,5.0,10.0,88,0.00,,,0.00,207.000000,,2013-03-08 18:32:00,
2013-03-08 10:42:00,32.0,29.0,-100.00,NNE,20,5.0,10.0,88,0.00,,,0.00,207.000000,,2013-03-08 18:42:00,
2013-03-08 10:52:00,32.0,29.0,-100.00,NNE,20,5.0,10.0,88,0.00,,,0.00,207.000000,,2013-03-08 18:52:00,
2013-03-08 11:01:00,32.0,29.0,-100.00,NNE,20,5.0,10.0,88,0.00,,,0.00,207.000000,,2013-03-08 19:01:00,
2013-03-08 11:11:00,32.0,29.0,-100.00,NNE,20,5.0,10.0,88,0.00,,,0.00,207.000000,,2013-03-08 19:11:00,
2013-03-08 11:42:00,36.0,29.0,-100.00,North,349,4.0,9.0,77,0.00,,,0.00,413.000000,,2013-03-08 19:42:00,
2013-03-08 11:52:00,36.0,29.0,-100.00,North,349,4.0,9.0,77,0.00,,,0.00,413.000000,,2013-03-08 19:52:00,
2013-03-08 12:01:00,36.0,29.0,-100.00,North,349,4.0,9.0,77,0.00,,,0.00,413.000000,,2013-03-08 20:01:00,
2013-03-08 12:11:00,36.0,29.0,-100.00,North,349,4.0,9.0,77,0.00,,,0.00,413.000000,,2013-03-08 20:11:00,
2013-03-08 12:32:00,39.0,29.0,-100.00,NE,34,3.0,8.0,67,0.00,,,0.00,436.000000,,2013-03-08 20:32:00,
2013-03-08 12:42:00,39.0,29.0,-100.00,NE,34,3.0,8.0,67,0.00,,,0.00,436.000000,,2013-03-08 20:42:00,
2013-03-08 12:53:00,39.0,29.0,-100.00,NE,34,3.0,8.0,67,0.00,,,0.00,436.000000,,2013-03-08 20:53:00,
2013-03-08 13:01:00,39.0,29.0,-100.00,NE,34,3.0,8.0,67,0.00,,,0.00,436.000000,,2013-03-08 21:01:00,
2013-03-08 13:11:00,39.0,29.0,-100.00,NE,34,3.0,8.0,67,0.00,,,0.00,436.000000,,2013-03-08 21:11:00,
2013-03-08 13:33:00,39.0,27.0,-100.00,NNW,342,4.0,10.0,61,0.00,,,0.00,494.000000,,2013-03-08 21:33:00,
2013-03-08 13:42:00,39.0,27.0,-100.00,NNW,342,4.0,10.0,61,0.00,,,0.00,494.000000,,2013-03-08 21:42:00,
2013-03-08 13:52:00,39.0,27.0,-100.00,NNW,342,4.0,10.0,61,0.00,,,0.00,494.000000,,2013-03-08 21:52:00,
2013-03-08 14:01:00,39.0,27.0,-100.00,NNW,342,4.0,10.0,61,0.00,,,0.00,494.000000,,2013-03-08 22:01:00,
2013-03-08 14:11:00,39.0,27.0,-100.00,NNW,342,4.0,10.0,61,0.00,,,0.00,494.000000,,2013-03-08 22:11:00,
2013-03-08 14:42:00,41.0,27.0,-100.00,North,354,5.0,10.0,58,0.00,,,0.00,446.000000,,2013-03-08 22:42:00,
2013-03-08 14:52:00,41.0,27.0,-100.00,North,354,5.0,10.0,58,0.00,,,0.00,446.000000,,2013-03-08 22:52:00,
2013-03-08 15:01:00,41.0,27.0,-100.00,North,354,5.0,10.0,58,0.00,,,0.00,446.000000,,2013-03-08 23:01:00,
2013-03-08 15:11:00,41.0,27.0,-100.00,North,354,5.0,10.0,58,0.00,,,0.00,446.000000,,2013-03-08 23:11:00,
2013-03-08 15:42:00,44.0,25.0,-100.00,NNW,346,7.0,11.0,46,0.00,,,0.00,538.000000,,2013-03-08 23:42:00,
2013-03-08 15:52:00,44.0,25.0,-100.00,NNW,346,7.0,11.0,46,0.00,,,0.00,538.000000,,2013-03-08 23:52:00,
2013-03-08 16:01:00,44.0,25.0,-100.00,NNW,346,7.0,11.0,46,0.00,,,0.00,538.000000,,2013-03-09 00:01:00,
2013-03-08 16:11:00,44.0,25.0,-100.00,NNW,346,7.0,11.0,46,0.00,,,0.00,538.000000,,2013-03-09 00:11:00,
2013-03-08 16:42:00,42.0,24.0,-100.00,North,8,7.0,13.0,49,0.00,,,0.00,335.000000,,2013-03-09 00:42:00,
2013-03-08 16:52:00,42.0,24.0,-100.00,North,8,7.0,13.0,49,0.00,,,0.00,335.000000,,2013-03-09 00:52:00,
2013-03-08 17:01:00,42.0,24.0,-100.00,North,8,7.0,13.0,49,0.00,,,0.00,335.000000,,2013-03-09 01:01:00,
2013-03-08 17:12:00,42.0,24.0,-100.00,North,8,7.0,13.0,49,0.00,,,0.00,335.000000,,2013-03-09 01:12:00,
2013-03-08 19:32:00,34.0,23.0,-100.00,NW,321,5.0,9.0,63,-99.99,,,0.00,0.000000,,2013-03-09 03:32:00,
2013-03-08 19:42:00,34.0,23.0,-100.00,NW,321,5.0,9.0,63,-99.99,,,0.00,0.000000,,2013-03-09 03:42:00,
2013-03-08 19:52:00,34.0,23.0,-100.00,NW,321,5.0,9.0,63,-99.99,,,0.00,0.000000,,2013-03-09 03:52:00,
2013-03-08 20:01:00,34.0,23.0,-100.00,NW,321,5.0,9.0,63,-99.99,,,0.00,0.000000,,2013-03-09 04:01:00,
2013-03-08 20:11:00,34.0,23.0,-100.00,NW,321,5.0,9.0,63,-99.99,,,0.00,0.000000,,2013-03-09 04:11:00,
2013-03-08 20:32:00,33.0,22.0,-100.00,NW,313,5.0,8.0,64,0.00,,,0.00,0.000000,,2013-03-09 04:32:00,
2013-03-08 20:42:00,33.0,22.0,-100.00,NW,313,5.0,8.0,64,0.00,,,0.00,0.000000,,2013-03-09 04:42:00,
2013-03-08 20:52:00,33.0,22.0,-100.00,NW,313,5.0,8.0,64,0.00,,,0.00,0.000000,,2013-03-09 04:52:00,
2013-03-08 21:01:00,33.0,22.0,-100.00,NW,313,5.0,8.0,64,0.00,,,0.00,0.000000,,2013-03-09 05:01:00,
2013-03-08 21:11:00,33.0,22.0,-100.00,NW,313,5.0,8.0,64,0.00,,,0.00,0.000000,,2013-03-09 05:11:00,
2013-03-08 21:32:00,32.0,21.0,-100.00,NW,304,5.0,8.0,64,0.00,,,0.00,0.000000,,2013-03-09 05:32:00,
2013-03-08 21:43:00,32.0,21.0,-100.00,NW,304,5.0,8.0,64,0.00,,,0.00,0.000000,,2013-03-09 05:43:00,
2013-03-08 21:53:00,32.0,21.0,-100.00,NW,304,5.0,8.0,64,0.00,,,0.00,0.000000,,2013-03-09 05:53:00,
2013-03-08 22:01:00,32.0,21.0,-100.00,NW,304,5.0,8.0,64,0.00,,,0.00,0.000000,,2013-03-09 06:01:00,
2013-03-08 22:11:00,32.0,21.0,-100.00,NW,304,5.0,8.0,64,0.00,,,0.00,0.000000,,2013-03-09 06:11:00,
2013-03-08 22:32:00,30.0,20.0,-100.00,West,270,5.0,6.0,67,0.00,,,0.00,0.000000,,2013-03-09 06:32:00,
2013-03-08 22:42:00,30.0,20.0,-100.00,West,270,5.0,6.0,67,0.00,,,0.00,0.000000,,2013-03-09 06:42:00,
2013-03-08 22:52:00,30.0,20.0,-100.00,West,270,5.0,6.0,67,0.00,,,0.00,0.000000,,2013-03-09 06:52:00,
2013-03-08 23:01:00,30.0,20.0,-100.00,West,270,5.0,6.0,67,0.00,,,0.00,0.000000,,2013-03-09 07:01:00,
2013-03-08 23:11:00,30.0,20.0,-100.00,West,270,5.0,6.0,67,0.00,,,0.00,0.000000,,2013-03-09 07:11:00,
2013-03-08 23:32:00,28.0,20.0,-100.00,West,268,4.0,7.0,72,0.00,,,0.00,0.000000,,2013-03-09 07:32:00,
2013-03-08 23:42:00,28.0,20.0,-100.00,West,268,4.0,7.0,72,0.00,,,0.00,0.000000,,2013-03-09 07:42:00,
2013-03-08 23:52:00,28.0,20.0,-100.00,West,268,4.0,7.0,72,0.00,,,0.00,0.000000,,2013-03-09 07:52:00,